Location: downtown San Diego
(32.7310°N, 117.1990°W)
Time: 05:34:17
(UTC-07:00)

CZ-3 Stage 3 - Pass Details

Date: 12 July 2018
Orbit: 402 x 35105 km, 30.4° (Epoch: 22 September)

Event Time Altitude Azimuth Distance (km) Brightness Sun altitude
Rises 20:27:14 0° 242° (WSW) 4,848 8.1 -6.1°
Reaches altitude 10° 20:31:57 10° 232° (SW) 2,462 6.4 -6.9°
Maximum altitude 20:35:47 28° 171° (S) 915 3.6 -7.6°
Drops below altitude 10° 20:38:04 10° 106° (ESE) 1,442 4.3 -8.0°
Enters shadow 20:38:05 10° 105° (ESE) 1,447 4.4 -8.0°
